Zurück zum Katalog

TITAN 3C TRANSTAGE DEB

AktivLEO
NORAD 1642·DEBRIS·🇺🇸 United States

Gestartet Oct 15, 1965 von Cape Canaveral Space Force Station

Loading…

Nächste Überflüge (nächste 24 Stunden)

TLE

AktuellSource: Space-Track

Epoche: Sep 14, 2026, 15:05 UTC

1 01642U 65082D   26257.62861843  .00000658  00000-0  70672-4 0  9999
2 01642  32.0946 357.3107 0022791  91.3128 269.0134 14.84634895250880

Verfolge TITAN 3C TRANSTAGE DEB in Echtzeit mit AllMySat

Download on the App Store